This is the latest recevied weather packets stored in our database for station/object N0ZMJ-4. If no packets are shown the sender has not sent any weather packets the latest 10 day(s).
| Time | Temp. | Humidity | Pressure | Rain* | Wind** | Luminosity | Snow |
|---|---|---|---|---|---|---|---|
| 1777590003 | 10.56° C | 61% | 1015.2 hPa | 0 mm | - | - | - |
| 1777589702 | 10.56° C | 59% | 1015.3 hPa | 0 mm | - | - | - |
| 1777589403 | 11.11° C | 61% | 1015.2 hPa | 0 mm | - | - | - |
| 1777589103 | 11.11° C | 59% | 1015.3 hPa | 0 mm | - | - | - |
| 1777588803 | 11.11° C | 59% | 1015.3 hPa | 0 mm | - | - | - |
| 1777588503 | 11.11° C | 60% | 1015.2 hPa | 0 mm | - | - | - |
| 1777588203 | 11.11° C | 61% | 1015.3 hPa | 0 mm | - | - | - |
| 1777587903 | 11.11° C | 60% | 1015.2 hPa | 0 mm | - | - | - |
| 1777587603 | 10.56° C | 62% | 1015.3 hPa | 0 mm | - | - | - |
| 1777587303 | 11.11° C | 63% | 1015.3 hPa | 0 mm | - | - | - |
| 1777587002 | 11.11° C | 64% | 1015.4 hPa | 0 mm | - | - | - |
| 1777586703 | 11.11° C | 60% | 1015.3 hPa | 0 mm | - | - | - |
| 1777586403 | 11.11° C | 55% | 1015.3 hPa | 0 mm | - | - | - |
| 1777586103 | 11.11° C | 59% | 1015.2 hPa | 0 mm | - | - | - |
| 1777585803 | 10.56° C | 58% | 1015.2 hPa | 0 mm | - | - | - |
| 1777585503 | 10.56° C | 59% | 1015.3 hPa | 0 mm | - | - | - |
| 1777585203 | 10.56° C | 61% | 1015.4 hPa | 0 mm | - | - | - |
| 1777584903 | 10.56° C | 62% | 1015.5 hPa | 0 mm | - | - | - |
| 1777584603 | 10° C | 62% | 1015.7 hPa | 0 mm | - | - | - |
| 1777584303 | 10° C | 62% | 1015.7 hPa | 0 mm | - | - | - |
| 1777584003 | 9.44° C | 63% | 1016 hPa | 0 mm | - | - | - |
| 1777583702 | 9.44° C | 62% | 1016 hPa | 0 mm | - | - | - |
| 1777583403 | 10° C | 56% | 1016 hPa | 0 mm | - | - | - |
| 1777583102 | 10.56° C | 56% | 1015.8 hPa | 0 mm | - | - | - |
| 1777582803 | 10.56° C | 55% | 1015.9 hPa | 0 mm | - | - | - |
* Rain latest hour (hover to see other rain measurements)
** Current wind speed in m/s (hover to see current wind gust speed)